KF6ILA Weather Reports


Display with metric or nautical units.
time (UTC)temp
F
wind
direction
speed
MPH
gust
MPH
rain 1hr
in
rain 24hr
in
rain mn
in
humidity
%
barometer
mb
20260508012626 67 260 12.0 19.0 0.00 0.00 0.00 66 1015.0
20260508012129 67 275 13.0 18.0 0.00 0.00 0.00 63 1014.9
20260508010141 68 276 12.0 18.0 0.00 0.00 0.00 65 1015.1
20260508004650 69 272 14.0 20.0 0.00 0.00 0.00 61 1015.0
20260508004153 70 260 14.0 20.0 0.00 0.00 0.00 61 1015.1
20260508001708 70 284 9.0 20.0 0.00 0.00 0.00 57 1015.0
20260507234726 72 268 12.0 20.0 0.00 0.00 0.00 51 1015.3
20260507230750 73 275 12.0 18.0 0.00 0.00 0.00 52 2015.3
20260507223808 73 285 13.0 20.0 0.00 0.00 0.00 51 1015.3
20260507223311 73 265 10.0 16.0 0.00 0.00 0.00 51 1015.5
20260507221820 73 277 9.0 19.0 0.00 0.00 0.00 52 1015.5
20260507220329 73 282 11.0 18.0 0.00 0.00 0.00 50 1015.9
20260507215832 73 277 10.0 17.0 0.00 0.00 0.00 50 1015.9
20260507212850 73 270 10.0 20.0 0.00 0.00 0.00 50 1016.2
20260507204914 74 280 11.0 16.0 0.00 0.00 0.00 47 1015.8
20260507204417 74 264 9.0 16.0 0.00 0.00 0.00 45 1015.8
20260507194453 80 218 4.0 13.0 0.00 0.00 0.00 27 1016.4
20260507193956 79 116 4.0 14.0 0.00 0.00 0.00 31 1016.4
20260507193459 79 96 6.0 15.0 0.00 0.00 0.00 27 1016.6
20260507193002 80 91 2.0 15.0 0.00 0.00 0.00 24 1016.6
20260507192506 80 116 6.0 20.0 0.00 0.00 0.00 25 1016.6
20260507192008 80 136 7.0 20.0 0.00 0.00 0.00 28 1016.5
20260507191512 80 111 9.0 21.0 0.00 0.00 0.00 28 1016.5
20260507191014 80 142 7.0 21.0 0.00 0.00 0.00 27 1016.6
20260507190517 80 116 10.0 18.0 0.00 0.00 0.00 29 1016.7
20260507190020 80 103 4.0 19.0 0.00 0.00 0.00 28 1016.8
20260507185525 80 121 13.0 19.0 0.00 0.00 0.00 27 1016.8
20260507185026 80 103 10.0 18.0 0.00 0.00 0.00 31 1016.8
20260507184530 79 113 7.0 15.0 0.00 0.00 0.00 28 1016.8
20260507184032 79 128 9.0 15.0 0.00 0.00 0.00 30 1016.8
20260507183536 78 103 9.0 19.0 0.00 0.00 0.00 32 1017.0
20260507183038 79 69 8.0 21.0 0.00 0.00 0.00 30 1017.0
20260507182542 79 105 13.0 21.0 0.00 0.00 0.00 30 1017.1
20260507182044 79 109 12.0 16.0 0.00 0.00 0.00 31 1017.3
20260507181548 79 102 8.0 15.0 0.00 0.00 0.00 30 1017.3
20260507181051 78 97 10.0 16.0 0.00 0.00 0.00 30 1017.3
20260507180554 78 86 6.0 16.0 0.00 0.00 0.00 32 1017.3
20260507180056 78 97 7.0 15.0 0.00 0.00 0.00 32 1017.4
20260507175559 78 41 3.0 18.0 0.00 0.00 0.00 29 1017.4
20260507175102 77 92 11.0 21.0 0.00 0.00 0.00 30 1017.5
20260507174605 77 102 14.0 21.0 0.00 0.00 0.00 30 1016.6
20260507174108 77 75 7.0 23.0 0.00 0.00 0.00 31 1016.6
20260507173611 77 83 11.0 23.0 0.00 0.00 0.00 31 1016.6
20260507173114 77 59 9.0 18.0 0.00 0.00 0.00 30 1016.6
20260507172617 77 95 8.0 24.0 0.00 0.00 0.00 33 1016.7
20260507172120 77 109 13.0 24.0 0.00 0.00 0.00 30 1016.7
20260507171623 77 101 6.0 21.0 0.00 0.00 0.00 32 1016.7
20260507171126 77 91 12.0 21.0 0.00 0.00 0.00 32 1016.7
20260507170629 77 76 5.0 15.0 0.00 0.00 0.00 33 1016.7
20260507170132 77 95 10.0 15.0 0.00 0.00 0.00 32 1016.8
20260507165636 76 100 8.0 15.0 0.00 0.00 0.00 33 1016.8
20260507165139 76 94 7.0 12.0 0.00 0.00 0.00 33 1016.8
20260507164641 76 81 7.0 12.0 0.00 0.00 0.00 34 1016.9
20260507164144 76 81 6.0 13.0 0.00 0.00 0.00 34 1016.9
20260507163648 76 87 7.0 13.0 0.00 0.00 0.00 33 1017.0
20260507163150 76 94 6.0 11.0 0.00 0.00 0.00 34 1016.9
20260507162653 76 91 5.0 11.0 0.00 0.00 0.00 33 1017.1
20260507162156 75 73 3.0 7.0 0.00 0.00 0.00 35 1017.1
20260507161700 75 80 4.0 12.0 0.00 0.00 0.00 34 1017.0
20260507161202 75 96 6.0 12.0 0.00 0.00 0.00 36 1017.1
20260507160705 75 66 6.0 9.0 0.00 0.00 0.00 34 1017.1
20260507154221 73 100 3.0 8.0 0.00 0.00 0.00 38 1017.1
20260507153227 72 96 1.0 7.0 0.00 0.00 0.00 39 1017.2
20260507152233 72 58 4.0 6.0 0.00 0.00 0.00 37 1017.1
20260507151736 72 56 4.0 7.0 0.00 0.00 0.00 37 1017.2
20260507150742 71 61 4.0 6.0 0.00 0.00 0.00 41 1016.3
20260507150244 71 51 3.0 5.0 0.00 0.00 0.00 40 1016.3
20260507145747 70 79 1.0 3.0 0.00 0.00 0.00 43 1016.3
20260507145250 69 0 0.0 5.0 0.00 0.00 0.00 42 1016.3
20260507144753 67 60 2.0 5.0 0.00 0.00 0.00 48 1016.3
20260507134830 59 0 0.0 1.0 0.00 0.00 0.00 47 1016.4
20260507134333 58 0 0.0 1.0 0.00 0.00 0.00 46 1016.5
20260507133339 57 0 0.0 2.0 0.00 0.00 0.00 46 1016.4
20260507131351 56 0 0.0 2.0 0.00 0.00 0.00 48 1016.2
20260507125403 56 0 0.0 3.0 0.00 0.00 0.00 51 1016.0
20260507124906 56 227 2.0 4.0 0.00 0.00 0.00 50 1016.0
20260507123912 57 236 2.0 4.0 0.00 0.00 0.00 49 1016.0
20260507122918 57 0 0.0 0.0 0.00 0.00 0.00 49 1015.9
20260507121427 58 0 0.0 0.0 0.00 0.00 0.00 48 1015.9
20260507115439 58 0 0.0 0.0 0.00 0.00 0.00 48 1016.0
20260507114445 58 0 0.0 0.0 0.00 0.00 0.00 47 1015.2
20260507113948 59 0 0.0 0.0 0.00 0.00 0.00 47 1015.2
20260507112457 58 0 0.0 3.0 0.00 0.00 0.00 49 1015.3
20260507112000 58 311 1.0 2.0 0.00 0.00 0.00 49 1015.4
20260507111006 58 311 1.0 2.0 0.00 0.00 0.00 50 1015.3
20260507110012 57 304 1.0 4.0 0.00 0.00 0.00 51 1015.4
20260507105018 57 253 3.0 5.0 0.00 0.00 0.00 52 1015.4
20260507104521 57 0 0.0 3.0 0.00 0.00 0.00 51 1015.4
20260507103030 56 0 0.0 0.0 0.00 0.00 0.00 53 1015.4
20260507102533 56 0 0.0 0.0 0.00 0.00 0.00 53 1015.5
20260507102036 56 0 0.0 1.0 0.00 0.00 0.00 54 1015.5
20260507101042 56 0 0.0 2.0 0.00 0.00 0.00 55 1015.6
20260507100048 56 0 0.0 1.0 0.00 0.00 0.00 56 1015.6
20260507095551 56 0 0.0 2.0 0.00 0.00 0.00 55 1015.7
20260507093603 55 0 0.0 3.0 0.00 0.00 0.00 60 1015.9
20260507093106 55 0 0.0 3.0 0.00 0.00 0.00 61 1016.1
20260507092609 55 0 0.0 4.0 0.00 0.00 0.00 61 1016.0
20260507091118 56 323 3.0 6.0 0.00 0.00 0.00 61 1016.1
20260507090621 56 294 3.0 6.0 0.00 0.00 0.00 61 1016.2
20260507085627 56 291 3.0 5.0 0.00 0.00 0.00 60 1016.3
20260507085130 56 294 1.0 5.0 0.00 0.00 0.00 60 1016.4
20260507084633 57 296 2.0 6.0 0.00 0.00 0.00 60 1016.5
20260507084136 57 293 4.0 6.0 0.00 0.00 0.00 60 1016.5
20260507083639 57 303 3.0 7.0 0.00 0.00 0.00 60 1016.5
20260507083142 57 298 4.0 7.0 0.00 0.00 0.00 59 1016.5
20260507081651 57 292 4.0 7.0 0.00 0.00 0.00 58 1016.5
20260507081154 57 284 5.0 7.0 0.00 0.00 0.00 58 1016.6
20260507075703 57 288 4.0 9.0 0.00 0.00 0.00 59 1016.7
20260507075206 57 281 5.0 9.0 0.00 0.00 0.00 59 1016.7
20260507073715 57 298 4.0 9.0 0.00 0.00 0.00 61 1016.7
20260507072721 57 295 4.0 8.0 0.00 0.00 0.00 62 1016.6
20260507071727 57 287 5.0 8.0 0.00 0.00 0.00 63 1016.9
20260507070733 57 284 6.0 9.0 0.00 0.00 0.00 63 1016.9
20260507070236 57 288 6.0 10.0 0.00 0.00 0.00 64 1017.0
20260507065739 57 286 8.0 10.0 0.00 0.00 0.00 64 1016.9
20260507065242 57 294 5.0 10.0 0.00 0.00 0.00 64 1017.0
20260507064817 57 290 7.0 10.0 0.00 0.00 0.00 64 1017.0
20260507064745 57 290 7.0 10.0 0.00 0.00 0.00 64 1017.0
20260507064248 57 290 7.0 10.0 0.00 0.00 0.00 65 1017.1
20260507063751 57 284 6.0 9.0 0.00 0.00 0.00 65 1017.1
20260507063254 57 282 6.0 9.0 0.00 0.00 0.00 65 1016.4
20260507062757 57 282 6.0 9.0 0.00 0.00 0.00 65 1016.4
20260507062300 57 286 6.0 9.0 0.00 0.00 0.00 65 1016.3
20260507061803 57 288 6.0 9.0 0.00 0.00 0.00 64 1016.3
20260507060809 57 294 6.0 9.0 0.00 0.00 0.00 65 1016.3
20260507060312 57 292 5.0 8.0 0.00 0.00 0.00 65 1016.4
20260507055318 57 282 4.0 7.0 0.00 0.00 0.00 65 1016.6
20260507054821 57 286 3.0 9.0 0.00 0.00 0.00 65 1016.5
20260507054324 57 284 6.0 9.0 0.00 0.00 0.00 66 1016.4
20260507053827 57 286 6.0 9.0 0.00 0.00 0.00 66 1016.4
20260507051342 56 284 6.0 9.0 0.00 0.00 0.00 69 1016.6
20260507045851 56 283 6.0 8.0 0.00 0.00 0.00 72 1016.6
20260507045354 56 283 5.0 8.0 0.00 0.00 0.00 72 1016.6
20260507044857 56 282 6.0 8.0 0.00 0.00 0.00 72 1016.6
20260507043903 57 289 6.0 9.0 0.00 0.00 0.00 72 1016.6
20260507043406 57 290 5.0 9.0 0.00 0.00 0.00 72 1016.6
20260507042412 57 285 6.0 10.0 0.00 0.00 0.00 73 1016.6
20260507041915 57 287 5.0 10.0 0.00 0.00 0.00 74 1016.6
20260507041418 57 288 7.0 10.0 0.00 0.00 0.00 74 1016.7
20260507040424 56 290 5.0 10.0 0.00 0.00 0.00 76 1016.6
20260507035927 56 285 6.0 10.0 0.00 0.00 0.00 77 1016.5
20260507034933 55 280 6.0 9.0 0.00 0.00 0.00 78 1016.4
20260507034436 55 281 6.0 10.0 0.00 0.00 0.00 78 1016.2
20260507033939 55 285 7.0 10.0 0.00 0.00 0.00 78 1016.2
20260507032945 54 289 5.0 8.0 0.00 0.00 0.00 82 1016.2
20260507032448 54 285 5.0 7.0 0.00 0.00 0.00 82 1016.3
20260507030957 54 284 5.0 9.0 0.00 0.00 0.00 85 1016.2
20260507030500 54 284 6.0 9.0 0.00 0.00 0.00 86 1016.2
20260507025506 54 281 6.0 9.0 0.00 0.00 0.00 87 1016.2
20260507025009 55 290 5.0 8.0 0.00 0.00 0.00 87 1016.3
20260507024512 55 290 6.0 8.0 0.00 0.00 0.00 87 1016.2
20260507023021 55 289 4.0 12.0 0.00 0.00 0.00 85 1016.1
20260507022524 56 269 5.0 12.0 0.00 0.00 0.00 85 1016.0
20260507022027 56 273 6.0 12.0 0.00 0.00 0.00 84 1016.0
20260507021033 58 280 6.0 12.0 0.00 0.00 0.00 81 1015.9
20260507020535 0 276 8.0 0.0 0.00 0.00 0.00
20260507020039 59 293 6.0 12.0 0.00 0.00 0.00 79 1015.9
20260507015542 59 274 7.0 13.0 0.00 0.00 0.00 78 1015.9
20260507015045 60 271 8.0 13.0 0.00 0.00 0.00 78 1015.8
20260507014548 60 280 6.0 11.0 0.00 0.00 0.00 77 1015.8
20260507014051 60 273 7.0 11.0 0.00 0.00 0.00 76 1015.8
20260507013554 61 275 6.0 11.0 0.00 0.00 0.00 76 1015.9
20260507013057 61 284 6.0 13.0 0.00 0.00 0.00 76 1015.9